Погода в Восточном

Россия / Сахалинская область     48°16′27″N   142°37′33″E
темп.,
°C
ветер,
м/с
пор.,
м/с
влажн.,
%
обл.,
%
осадки,
мм/ч
давл.,
гПа
погр.,
м
26 февраля, пт
пт2623:00−11зсз2495100 0.4 1015164
02:00−9сз2495100 0.9 1016167
05:00−9ссв4695100 1.6 1015318
08:00−9ссв5794100 0.8 1015459
11:00−9ссв5793100 1.3 1016485
14:00−8ссв5690100 0.4 1017456
17:00−8св2387100 0.5 1017360
20:00−9ссв2295100 0.3 101959
27 февраля, сб
сб2723:00−10ссв4594100 0.7 1021302
02:00−11зсз1292100 0.1 102266
05:00−14сз228799 0.1 102320
08:00−16сз228778 0.0 102620
11:00−13зюз228138 0.0 1027100
14:00−9ю22750 0.0 1027219
17:00−7з12790 0.0 102797
20:00−11з45820 0.0 102739
28 февраля, вс
вс2823:00−11з44795 0.0 102637
02:00−9ююз458286 0.0 102464
05:00−9ю698393 0.0 1019151
08:00−5ю71293100 0.3 1016359
11:000зюз81579100 1.4 1012960
14:00+1з61476100 0.0 1011656
17:00+1з6137596 0.0 1011486
20:000з5678100 0.0 101294
1 марта, пн
пн123:00−3зсз5872100 0.0 1013107
02:00−7зюз4575100 0.0 101435
05:00−9зсз2377100 0.0 101731
08:00−11зсз347265 0.0 101830
11:00−9зсз497332 0.0 1020728
14:00−8сз676765 0.0 10211305
17:00−9зсз477366 0.1 1022602
20:00−13сз34830 0.0 102523
2 марта, вт
вт223:00−15зсз22804 0.0 102820
02:00−14зюз229294 0.1 102837
05:00−13зюз239397 0.3 1028121
08:00−15юз3386100 0.0 102838
11:00−13с2275100 0.0 1028213
14:00−11всв3366100 0.0 1026668
17:00−11всв3469100 0.0 1024596
20:00−12ссв4679100 0.0 1024435